This is the latest recevied weather packets stored in our database for station/object KD8NVS-13. If no packets are shown the sender has not sent any weather packets the latest 10 day(s).
| Time | Temp. | Humidity | Pressure | Rain* | Wind** | Luminosity | Snow |
|---|---|---|---|---|---|---|---|
| 1777905655 | 17.78° C | 61% | 999.8 hPa | 0 mm | - | 628 W/m² | - |
| 1777905352 | 17.22° C | 60% | 999.8 hPa | 0 mm | - | 611 W/m² | - |
| 1777905050 | 17.22° C | 61% | 999.8 hPa | 0 mm | - | 595 W/m² | - |
| 1777904747 | 17.22° C | 59% | 999.8 hPa | 0 mm | - | 576 W/m² | - |
| 1777904444 | 17.78° C | 61% | 999.8 hPa | 0 mm | - | 534 W/m² | - |
| 1777904140 | 17.22° C | 60% | 999.8 hPa | 0 mm | - | 492 W/m² | - |
| 1777903837 | 16.67° C | 60% | 1000.1 hPa | 0 mm | - | 492 W/m² | - |
| 1777903534 | 17.22° C | 59% | 1000.5 hPa | 0 mm | - | 452 W/m² | - |
| 1777903230 | 16.67° C | 62% | 1000.1 hPa | 0 mm | - | 448 W/m² | - |
| 1777902926 | 16.11° C | 61% | 1000.5 hPa | 0 mm | - | 412 W/m² | - |
| 1777902624 | 16.11° C | 61% | 1000.5 hPa | 0 mm | - | 160 W/m² | - |
| 1777902321 | 16.11° C | 60% | 1000.8 hPa | 0 mm | - | 454 W/m² | - |
| 1777902018 | 15.56° C | 61% | 1000.5 hPa | 0 mm | - | 443 W/m² | - |
| 1777901716 | 15.56° C | 62% | 1000.5 hPa | 0 mm | - | 180 W/m² | - |
| 1777901413 | 15° C | 62% | 1000.5 hPa | 0 mm | - | 162 W/m² | - |
| 1777901111 | 15.56° C | 61% | 1000.5 hPa | 0 mm | - | 157 W/m² | - |
| 1777900808 | 15.56° C | 60% | 1000.5 hPa | 0 mm | - | 162 W/m² | - |
| 1777900505 | 15.56° C | 59% | 1000.5 hPa | 0 mm | - | 173 W/m² | - |
| 1777900202 | 16.11° C | 57% | 1000.1 hPa | 0 mm | - | 322 W/m² | - |
| 1777899898 | 16.11° C | 58% | 1000.5 hPa | 0 mm | - | 293 W/m² | - |
| 1777899595 | 16.11° C | 58% | 1000.1 hPa | 0 mm | - | 325 W/m² | - |
| 1777899293 | 15.56° C | 58% | 1000.1 hPa | 0 mm | - | 289 W/m² | - |
| 1777898990 | 15.56° C | 57% | 1000.1 hPa | 0 mm | - | 277 W/m² | - |
| 1777898687 | 15.56° C | 57% | 1000.5 hPa | 0 mm | - | 256 W/m² | - |
| 1777898384 | 15° C | 58% | 1000.5 hPa | 0 mm | - | 236 W/m² | - |
* Rain latest hour (hover to see other rain measurements)
** Current wind speed in m/s (hover to see current wind gust speed)